User: anonymous   Login
Location: Kuffner-Sternwarte
(48.2130°N, 16.2960°E)
Time: 18:27:44
(UTC+02:00)
Language:

COROT - Orbit

View from above orbital plane
View from above orbital plane
View from above satellite
View from above satellite

Ground track
Ground track

The orbit data is extracted from the following two-line orbital elements,

1 29678U 06063A   18261.46276894  .00000115  00000-0  22922-4 0  9999
2 29678  90.0400  17.0282 0201782   4.1059 356.1740 14.44206502606204
Epoch (UTC): 18 September 2018 11:06:23
Eccentricity: 0.0201782
inclination: 90.0400°
perigee height: 601 km
apogee height: 888 km
right ascension of ascending node: 17.0282°
argument of perigee: 4.1059°
revolutions per day: 14.44206502
mean anomaly at epoch: 356.1740°
orbit number at epoch: 60620

The dashed part of the orbit path shows where the satellite is in the earth's shadow,  

DLR